St. Francis, KS

4:25 AM CDT on August 22, 2017 (GMT -0500)
Cheyenne County Municipal

Weather History for KSYF - February, 2014

Change the Weather History Date:

Wednesday, February 5, 2014

  Actual Average Record
Temperature  
Mean Temperature -6 °F -  
Max Temperature 2 °F 39 °F 62 °F (2015)
Min Temperature -13 °F 15 °F -13 °F (2014)
Degree Days  
Heating Degree Days 70    
Moisture  
Dew Point -11 °F    
Average Humidity 74    
Maximum Humidity 82    
Minimum Humidity 66    
Precipitation  
Precipitation 0.00 in - - ()
Sea Level Pressure  
Sea Level Pressure 30.48 in    
Wind  
Wind Speed 9 mph (NW)    
Max Wind Speed 16 mph    
Max Gust Speed 20 mph    
Visibility 9 miles    
Events Snow    
Averages and records for this station are not official NWS values.
T = Trace of Precipitation, MM = Missing Value Source: NWS Daily Summary

Daily Weather History Graph

Daily Weather History Graph

Search for Another Location

Airport or City:

Trip Planner

Search our weather history database for the weather conditions in past years. The results will help you decide how hot, cold, wet, or windy it might be!

Date:

Astronomy

Feb. 05, 2014 Rise Set
Actual Time 7:51 AM CST 6:11 PM CST
Civil Twilight 7:22 AM CST 6:40 PM CST
Nautical Twilight 6:50 AM CST 7:12 PM CST
Astronomical Twilight 6:19 AM CST 7:43 PM CST
Moon 11:08 AM CST (2/5) 12:05 AM CST (2/5)
Length of Visible Light 11h 17m
Length of Day
10h 20m
Waxing Crescent, 39% of the Moon is Illuminated
Feb 5
Waxing Crescent
Feb 6
First Quarter
Feb 14
Full
Feb 22
Last Quarter
Mar 1
New

Hourly Weather History & Observations

Time (CST) Temp. Windchill Dew Point Humidity Pressure Visibility Wind Dir Wind Speed Gust Speed Precip Events Conditions
12:15 AM 0.1 °F -19.8 °F -5.6 °F 77% 30.38 in 7.0 mi North 16.1 mph - N/A   Overcast
12:35 AM -0.4 °F -19.9 °F -6.0 °F 77% 30.39 in 5.0 mi North 15.0 mph - N/A   Haze
12:55 AM -0.0 °F -17.1 °F -5.8 °F 77% 30.39 in 7.0 mi North 11.5 mph - N/A   Overcast
1:15 AM -0.0 °F -19.4 °F -5.8 °F 77% 30.39 in 10.0 mi North 15.0 mph - N/A   Overcast
1:35 AM -0.2 °F -19.6 °F -6.2 °F 76% 30.40 in 4.0 mi North 15.0 mph 19.6 mph N/A Snow Light Snow
1:55 AM -0.6 °F -20.1 °F -6.2 °F 77% 30.41 in 3.0 mi NNW 15.0 mph - N/A Snow Light Snow
2:15 AM -0.9 °F -18.3 °F -6.5 °F 77% 30.41 in 4.0 mi North 11.5 mph - N/A   Haze
2:35 AM -0.9 °F -18.3 °F -6.7 °F 77% 30.42 in 4.0 mi North 11.5 mph - N/A Snow Light Snow
2:55 AM -1.8 °F -19.4 °F -7.4 °F 77% 30.43 in 5.0 mi NNW 11.5 mph - N/A   Haze
3:15 AM -2.2 °F -18.9 °F -7.8 °F 77% 30.44 in 4.0 mi NNW 10.4 mph - N/A   Haze
3:35 AM -3.5 °F -20.5 °F -8.9 °F 78% 30.44 in 10.0 mi NNW 10.4 mph - N/A   Mostly Cloudy
3:55 AM -3.8 °F -21.0 °F -9.6 °F 76% 30.44 in 10.0 mi NNW 10.4 mph - N/A   Scattered Clouds
4:15 AM -4.2 °F -21.4 °F -9.8 °F 77% 30.44 in 10.0 mi NNW 10.4 mph - N/A   Clear
4:35 AM -4.4 °F -22.6 °F -10.3 °F 76% 30.45 in 10.0 mi NNW 11.5 mph - N/A   Clear
4:55 AM -4.9 °F -24.1 °F -10.8 °F 76% 30.45 in 10.0 mi NNW 12.7 mph - N/A   Clear
5:15 AM -6.2 °F -23.9 °F -12.1 °F 75% 30.46 in 10.0 mi NNW 10.4 mph - N/A   Clear
5:35 AM -6.0 °F -24.6 °F -12.1 °F 75% 30.46 in 10.0 mi NNW 11.5 mph - N/A   Clear
5:55 AM -6.3 °F -25.9 °F -12.5 °F 75% 30.46 in 10.0 mi NNW 12.7 mph - N/A   Clear
6:15 AM -7.6 °F -26.6 °F -13.5 °F 75% 30.46 in 10.0 mi NNW 11.5 mph - N/A   Clear
6:35 AM -8.5 °F -23.2 °F -14.3 °F 76% 30.47 in 10.0 mi NNW 6.9 mph - N/A   Clear
6:55 AM -9.4 °F -24.3 °F -14.8 °F 77% 30.48 in 10.0 mi NNW 6.9 mph - N/A   Clear
7:15 AM -10.1 °F -23.6 °F -15.9 °F 76% 30.49 in 10.0 mi NNW 5.8 mph - N/A   Clear
7:35 AM -10.3 °F -25.4 °F -15.5 °F 78% 30.48 in 10.0 mi NNW 6.9 mph - N/A   Clear
7:55 AM -11.7 °F - -17.0 °F 78% 30.49 in 10.0 mi Calm Calm - N/A   Clear
8:15 AM -10.3 °F -23.8 °F -15.2 °F 79% 30.50 in 10.0 mi NNW 5.8 mph - N/A   Unknown
8:35 AM -10.5 °F -22.1 °F -16.1 °F 76% 30.51 in 10.0 mi NW 4.6 mph - N/A   Clear
8:55 AM -10.5 °F - -16.2 °F 76% 30.52 in 10.0 mi Calm Calm - N/A   Clear
9:15 AM -9.6 °F -22.9 °F -15.7 °F 74% 30.52 in 10.0 mi NNW 5.8 mph - N/A   Clear
9:35 AM -8.5 °F -25.7 °F -14.8 °F 74% 30.52 in 10.0 mi NW 9.2 mph - N/A   Clear
9:55 AM -7.8 °F -22.3 °F -14.4 °F 73% 30.55 in 10.0 mi WNW 6.9 mph - N/A   Clear
10:15 AM -7.8 °F - -14.8 °F 71% 30.55 in 10.0 mi Calm Calm - N/A   Clear
10:35 AM -6.2 °F -14.9 °F -13.2 °F 72% 30.55 in 10.0 mi WSW 3.5 mph - N/A   Clear
10:55 AM -5.4 °F -16.2 °F -12.8 °F 70% 30.55 in 10.0 mi West 4.6 mph - N/A   Clear
11:15 AM -3.3 °F -15.4 °F -10.8 °F 70% 30.54 in 10.0 mi NW 5.8 mph - N/A   Clear
11:35 AM -2.6 °F -10.8 °F -10.3 °F 70% 30.54 in 10.0 mi NW 3.5 mph - N/A   Clear
11:55 AM -1.3 °F -14.5 °F -9.4 °F 69% 30.53 in 10.0 mi North 6.9 mph - N/A   Clear
12:15 PM -0.9 °F -14.1 °F -9.0 °F 69% 30.52 in 10.0 mi North 6.9 mph - N/A   Clear
12:35 PM -0.2 °F -11.8 °F -8.1 °F 69% 30.51 in 10.0 mi North 5.8 mph - N/A   Clear
12:55 PM 0.1 °F -9.7 °F -7.6 °F 70% 30.51 in 10.0 mi North 4.6 mph - N/A   Clear
1:15 PM 0.3 °F - -7.8 °F 69% 30.51 in 10.0 mi Calm Calm - N/A   Scattered Clouds
1:35 PM 1.4 °F -8.3 °F -7.4 °F 67% 30.50 in 10.0 mi North 4.6 mph - N/A   Mostly Cloudy
1:55 PM 1.2 °F -10.1 °F -7.2 °F 68% 30.49 in 10.0 mi NNW 5.8 mph - N/A   Overcast
2:15 PM 2.1 °F -9.0 °F -6.9 °F 66% 30.49 in 10.0 mi North 5.8 mph - N/A   Overcast
2:35 PM 2.1 °F -7.4 °F -6.7 °F 67% 30.48 in 10.0 mi NNW 4.6 mph - N/A   Mostly Cloudy
2:55 PM 2.1 °F -9.0 °F -6.2 °F 68% 30.47 in 10.0 mi North 5.8 mph - N/A   Scattered Clouds
3:15 PM 1.8 °F -7.8 °F -6.3 °F 69% 30.47 in 10.0 mi NNW 4.6 mph - N/A   Scattered Clouds
3:35 PM 2.5 °F -10.0 °F -6.2 °F 67% 30.47 in 10.0 mi North 6.9 mph - N/A   Mostly Cloudy
3:55 PM 2.1 °F -10.4 °F -6.2 °F 68% 30.47 in 10.0 mi North 6.9 mph - N/A   Scattered Clouds
4:15 PM 2.1 °F -5.4 °F -6.5 °F 67% 30.47 in 10.0 mi North 3.5 mph - N/A   Clear
4:35 PM 1.4 °F -8.3 °F -7.1 °F 68% 30.47 in 10.0 mi NNW 4.6 mph - N/A   Clear
4:55 PM 1.4 °F -8.3 °F -7.1 °F 68% 30.48 in 10.0 mi North 4.6 mph - N/A   Clear
5:15 PM 0.1 °F -9.7 °F -7.8 °F 69% 30.48 in 10.0 mi NW 4.6 mph - N/A   Clear
5:35 PM -0.6 °F -8.5 °F -8.0 °F 71% 30.48 in 10.0 mi NNW 3.5 mph - N/A   Clear
5:55 PM -0.4 °F -8.3 °F -7.8 °F 71% 30.49 in 10.0 mi WNW 3.5 mph - N/A   Clear
6:15 PM -1.1 °F -9.1 °F -7.8 °F 73% 30.49 in 10.0 mi WNW 3.5 mph - N/A   Scattered Clouds
6:35 PM -2.4 °F -10.6 °F -8.5 °F 75% 30.49 in 10.0 mi West 3.5 mph - N/A   Scattered Clouds
6:55 PM -4.0 °F -12.4 °F -9.4 °F 78% 30.49 in 10.0 mi West 3.5 mph - N/A   Scattered Clouds
7:15 PM -5.1 °F -15.8 °F -10.1 °F 79% 30.49 in 10.0 mi WSW 4.6 mph - N/A   Scattered Clouds
7:35 PM -5.4 °F -16.2 °F -10.1 °F 80% 30.49 in 10.0 mi WSW 4.6 mph - N/A   Clear
7:55 PM -6.0 °F -16.9 °F -10.5 °F 81% 30.48 in 10.0 mi WSW 4.6 mph - N/A   Scattered Clouds
8:15 PM -6.9 °F -19.7 °F -11.4 °F 81% 30.48 in 10.0 mi WSW 5.8 mph - N/A   Clear
8:35 PM -9.6 °F -24.5 °F -13.9 °F 81% 30.47 in 10.0 mi SW 6.9 mph - N/A   Clear
8:55 PM -10.7 °F -25.8 °F -14.8 °F 82% 30.47 in 10.0 mi WSW 6.9 mph - N/A   Scattered Clouds
9:15 PM -9.8 °F -23.1 °F -14.3 °F 81% 30.47 in 10.0 mi WSW 5.8 mph - N/A   Clear
9:35 PM -12.5 °F -26.3 °F -16.8 °F 81% 30.47 in 10.0 mi SW 5.8 mph - N/A   Clear
9:55 PM -13.0 °F -27.0 °F -17.5 °F 80% 30.47 in 10.0 mi SW 5.8 mph - N/A   Mostly Cloudy
10:35 PM -11.7 °F -27.1 °F -16.4 °F 80% 30.47 in 10.0 mi WSW 6.9 mph - N/A   Mostly Cloudy
10:55 PM -10.5 °F -24.0 °F -15.7 °F 78% 30.46 in 10.0 mi WSW 5.8 mph - N/A   Overcast
11:15 PM -10.5 °F - -15.2 °F 80% 30.46 in 10.0 mi Calm Calm - N/A   Overcast
11:35 PM -8.7 °F -17.8 °F -13.9 °F 78% 30.46 in 10.0 mi SW 3.5 mph - N/A   Overcast
11:55 PM -8.7 °F - -13.7 °F 79% 30.45 in 10.0 mi Calm Calm - N/A   Overcast